Home > Weather > Baton Rouge > Past weeks

Flag for USA Past Weather in Baton Rouge, Louisiana, USA — Yesterday and Last 2 Weeks

Now
73 °F

Light rain. Scattered clouds.


Feels Like: 70 °F
Forecast: 75 / 86 °F
Wind: 3 mph from North

Location: Baton Rouge Metropolitan - Ryan Field

Current Time: Aug 27, 2016 at 7:31:30 PM

Latest Report: Aug 27, 2016 at 6:53 PM


Visibility: 10 mi

Pressure: 29.93 "Hg

Humidity: 94%

Dew Point: 71 °F

Location of Baton RougeLocation

Past Weather in Baton Rouge — Graph

°F

Baton Rouge Temperature Yesterday

Maximum temperature yesterday: 91 °F (at 1:53 PM)
Minimum temperature yesterday: 74 °F (at 5:53 AM)
Average temperature yesterday: 81 °F

High & Low Weather Summary for the Past Weeks

 TemperatureHumidityPressure
High95 °F (Aug 24, 2:53 PM)100% (Aug 12, 10:59 PM)30.21 "Hg (Aug 12, 10:59 PM)
Low72 °F (Aug 12, 5:53 PM)49% (Aug 24, 2:53 PM)29.80 "Hg (Aug 13, 2:53 AM)
Average80 °F85%30.03 "Hg
* Reported Aug 12 5:53 PM — Aug 27 5:57 PM, Baton Rouge, Weather by CustomWeather, © 2016

Note: Actual official high and low records may vary slightly from our data, if they occured in-between our weather recording intervals... More about our weather records

Advertising

Baton Rouge Weather History for the Previous 24 Hours

Scroll right to see more
 ConditionsComfort  
Time TempWeatherWind HumidityBarometerVisibility
5:57 PM
Sat, Aug 27
73 °FThunderstorms. Fog.17 mph94%29.96 "Hg3 mi
4:53 PM76 °FScattered clouds.7 mph97%29.94 "Hg10 mi
3:53 PM77 °FLight rain. Overcast.5 mph96%29.93 "Hg10 mi
2:53 PM75 °FMore clouds than sun.No wind94%29.93 "Hg10 mi
1:53 PM86 °FThunderstorms. Broken clouds.No wind75%29.94 "Hg10 mi
12:53 PM87 °FLight rain. Partly sunny.7 mph67%29.97 "Hg10 mi
11:53 AM89 °FPartly sunny.8 mph65%29.98 "Hg10 mi
10:53 AM86 °FPassing clouds.8 mph75%30.00 "Hg10 mi
9:53 AM82 °FSunny.7 mph82%30.01 "Hg10 mi
8:53 AM80 °FSunny.9 mph87%30.00 "Hg10 mi
7:53 AM77 °FSunny.No wind94%29.99 "Hg8 mi
6:53 AM75 °FFog.5 mph96%29.97 "Hg5 mi
5:53 AM75 °FClear.3 mph96%29.96 "Hg8 mi
4:53 AM76 °FClear.No wind94%29.95 "Hg9 mi
3:53 AM75 °FClear.5 mph96%29.96 "Hg7 mi
2:53 AM76 °FClear.3 mph94%29.96 "Hg8 mi
1:53 AM76 °FClear.3 mph94%29.97 "Hg9 mi
12:53 AM76 °FClear.3 mph94%29.98 "Hg10 mi
11:53 PM
Fri, Aug 26
77 °FClear.No wind94%29.99 "Hg10 mi
10:53 PM78 °FClear.No wind90%30.00 "Hg10 mi
9:53 PM78 °FClear.No wind90%29.99 "Hg10 mi
8:53 PM79 °FClear.No wind90%29.98 "Hg10 mi
7:53 PM81 °FSunny.3 mph82%29.96 "Hg10 mi
Weather by CustomWeather, © 2016

See weather overviewHow to use our weather pages